Location: Chanteloup
(48.8560°N, 2.7390°E)
Time: 22:10:53
(UTC+00:00)

Cosmos 2322 Rocket - Pass Details

Date: 01 June 2022
Orbit: 833 x 851 km, 71.0° (Epoch: 06 July)

Event Time Altitude Azimuth Distance (km) Brightness Sun altitude
Rises 22:28:00 0° 241° (WSW) 3,372 5.2 -16.8°
Reaches altitude 10° 22:30:44 10° 252° (WSW) 2,442 4.6 -17.0°
Maximum altitude 22:35:36 30° 313° (NW) 1,459 4.0 -17.2°
Drops below altitude 10° 22:40:32 10° 14° (NNE) 2,455 5.5 -17.5°
Sets 22:43:17 0° 25° (NNE) 3,395 6.1 -17.6°
